Las Cruces, NM

8:53 PM MST on December 14, 2017 (GMT -0700)
Las Cruces International

Weather History for KLRU - September, 2013

Change the Weather History Date:

Monday, September 30, 2013

  Actual Average Record
Temperature  
Mean Temperature 66 °F -  
Max Temperature 86 °F 80 °F 93 °F (2003)
Min Temperature 47 °F 58 °F 47 °F (2013)
Cooling Degree Days 2    
Growing Degree Days 16 (Base 50)    
Moisture  
Dew Point 32 °F    
Average Humidity 30    
Maximum Humidity 66    
Minimum Humidity 11    
Precipitation  
Precipitation 0.00 in - - ()
Sea Level Pressure  
Sea Level Pressure 30.05 in    
Wind  
Wind Speed 6 mph (West)    
Max Wind Speed 14 mph    
Max Gust Speed 21 mph    
Visibility 10 miles    
Events      
Averages and records for this station are not official NWS values.
T = Trace of Precipitation, MM = Missing Value Source: NWS Daily Summary

Daily Weather History Graph

Daily Weather History Graph

Search for Another Location

Airport or City:

Trip Planner

Search our weather history database for the weather conditions in past years. The results will help you decide how hot, cold, wet, or windy it might be!

Date:

Astronomy

Sep. 30, 2013 Rise Set
Actual Time 7:01 AM MDT 6:53 PM MDT
Civil Twilight 6:36 AM MDT 7:17 PM MDT
Nautical Twilight 6:08 AM MDT 7:46 PM MDT
Astronomical Twilight 5:39 AM MDT 8:14 PM MDT
Moon 2:53 AM MDT (9/30) 4:14 PM MDT (9/30)
Length of Visible Light 12h 41m
Length of Day
11h 52m
Waning Crescent, 18% of the Moon is Illuminated
Sep 30
Waning Crescent
Oct 4
New
Oct 11
First Quarter
Oct 18
Full
Oct 26
Last Quarter

Hourly Weather History & Observations

Time (MDT) Temp. Dew Point Humidity Pressure Visibility Wind Dir Wind Speed Gust Speed Precip Events Conditions
12:15 AM 57.0 °F 33.1 °F 40% 30.11 in 10.0 mi WSW 6.9 mph - N/A   Clear
12:35 AM 54.3 °F 32.9 °F 44% 30.10 in 10.0 mi West 6.9 mph - N/A   Clear
12:55 AM 54.1 °F 33.4 °F 46% 30.10 in 10.0 mi West 4.6 mph - N/A   Clear
1:15 AM 52.2 °F 34.0 °F 50% 30.11 in 10.0 mi Calm Calm - N/A   Clear
1:35 AM 58.1 °F 33.8 °F 40% 30.11 in 10.0 mi Calm Calm - N/A   Clear
1:55 AM 55.4 °F 34.3 °F 45% 30.10 in 10.0 mi SW 3.5 mph - N/A   Clear
2:15 AM 56.7 °F 34.3 °F 43% 30.10 in 10.0 mi SW 5.8 mph - N/A   Clear
2:35 AM 57.2 °F 34.2 °F 42% 30.10 in 10.0 mi West 5.8 mph - N/A   Clear
2:55 AM 55.2 °F 34.2 °F 45% 30.09 in 10.0 mi West 6.9 mph - N/A   Clear
3:15 AM 54.9 °F 34.9 °F 47% 30.09 in 10.0 mi WNW 9.2 mph - N/A   Clear
3:35 AM 54.5 °F 35.6 °F 49% 30.08 in 10.0 mi WNW 5.8 mph - N/A   Clear
3:55 AM 53.2 °F 36.1 °F 52% 30.08 in 10.0 mi NNW 6.9 mph - N/A   Clear
4:15 AM 56.3 °F 36.0 °F 46% 30.08 in 10.0 mi Calm Calm - N/A   Clear
4:35 AM 54.0 °F 36.0 °F 51% 30.08 in 10.0 mi ENE 4.6 mph - N/A   Clear
4:55 AM 54.9 °F 36.0 °F 49% 30.08 in 10.0 mi NE 4.6 mph - N/A   Clear
5:15 AM 51.8 °F 36.0 °F 55% 30.09 in 10.0 mi NE 8.1 mph - N/A   Clear
5:35 AM 54.9 °F 35.6 °F 48% 30.09 in 10.0 mi NNE 9.2 mph - N/A   Clear
5:55 AM 54.1 °F 35.8 °F 50% 30.09 in 10.0 mi Calm Calm - N/A   Clear
6:15 AM 51.6 °F 36.0 °F 55% 30.09 in 10.0 mi WNW 3.5 mph - N/A   Clear
6:35 AM 48.2 °F 35.8 °F 62% 30.09 in 10.0 mi NW 3.5 mph - N/A   Clear
6:55 AM 48.4 °F 36.1 °F 63% 30.09 in 10.0 mi NW 4.6 mph - N/A   Clear
7:15 AM 47.3 °F 36.5 °F 66% 30.09 in 10.0 mi WNW 6.9 mph - N/A   Clear
7:35 AM 50.4 °F 37.4 °F 61% 30.09 in 10.0 mi WNW 4.6 mph - N/A   Clear
7:55 AM 55.9 °F 39.2 °F 53% 30.09 in 10.0 mi WNW 3.5 mph - N/A   Clear
8:15 AM 59.4 °F 40.5 °F 50% 30.09 in 10.0 mi WNW 3.5 mph - N/A   Clear
8:35 AM 62.4 °F 41.0 °F 45% 30.10 in 10.0 mi NNW 4.6 mph - N/A   Clear
8:55 AM 65.3 °F 41.0 °F 41% 30.11 in 10.0 mi North 4.6 mph - N/A   Clear
9:15 AM 66.7 °F 41.2 °F 39% 30.11 in 10.0 mi Calm Calm - N/A   Clear
9:35 AM 68.9 °F 38.8 °F 33% 30.11 in 10.0 mi NE 3.5 mph - N/A   Clear
9:55 AM 70.9 °F 37.9 °F 30% 30.11 in 10.0 mi Calm Calm - N/A   Clear
10:15 AM 72.1 °F 38.3 °F 29% 30.11 in 10.0 mi Calm Calm - N/A   Clear
10:35 AM 74.1 °F 39.9 °F 29% 30.11 in 10.0 mi East 5.8 mph - N/A   Clear
10:55 AM 74.1 °F 39.4 °F 28% 30.11 in 10.0 mi Calm Calm - N/A   Clear
11:15 AM 75.7 °F 39.2 °F 27% 30.11 in 10.0 mi SE 4.6 mph - N/A   Clear
11:35 AM 76.3 °F 38.5 °F 26% 30.10 in 10.0 mi Calm Calm - N/A   Clear
11:55 AM 76.6 °F 36.9 °F 24% 30.09 in 10.0 mi North 3.5 mph - N/A   Clear
12:15 PM 78.1 °F 37.4 °F 23% 30.08 in 10.0 mi West 3.5 mph - N/A   Clear
12:35 PM 79.0 °F 37.6 °F 23% 30.08 in 10.0 mi Calm Calm - N/A   Clear
12:55 PM 80.4 °F 37.6 °F 22% 30.07 in 10.0 mi Calm Calm - N/A   Clear
1:15 PM 81.1 °F 35.6 °F 19% 30.05 in 10.0 mi WSW 4.6 mph - N/A   Clear
1:35 PM 82.2 °F 29.8 °F 15% 30.04 in 10.0 mi West 4.6 mph - N/A   Clear
1:55 PM 84.4 °F 28.8 °F 13% 30.03 in 10.0 mi WNW 10.4 mph 17.3 mph N/A   Clear
2:15 PM 84.2 °F 28.4 °F 13% 30.02 in 10.0 mi West 10.4 mph - N/A   Clear
2:35 PM 85.3 °F 27.1 °F 12% 30.01 in 10.0 mi WNW 8.1 mph - N/A   Clear
2:55 PM 85.5 °F 29.8 °F 13% 30.00 in 10.0 mi WNW 8.1 mph 17.3 mph N/A   Clear
3:15 PM 85.8 °F 27.7 °F 12% 29.99 in 10.0 mi West 12.7 mph 20.7 mph N/A   Clear
3:35 PM 85.5 °F 26.6 °F 12% 29.99 in 10.0 mi West 11.5 mph 16.1 mph N/A   Clear
3:55 PM 86.4 °F 25.5 °F 11% 29.98 in 10.0 mi West 11.5 mph 17.3 mph N/A   Clear
4:15 PM 86.4 °F 27.1 °F 12% 29.98 in 10.0 mi West 11.5 mph 17.3 mph N/A   Clear
4:35 PM 86.5 °F 28.0 °F 12% 29.97 in 10.0 mi West 12.7 mph 19.6 mph N/A   Clear
4:55 PM 86.0 °F 29.1 °F 13% 29.97 in 10.0 mi WSW 11.5 mph 16.1 mph N/A   Clear
5:15 PM 85.6 °F 28.0 °F 12% 29.97 in 10.0 mi West 13.8 mph 17.3 mph N/A   Clear
5:35 PM 85.1 °F 28.8 °F 13% 29.97 in 10.0 mi WSW 13.8 mph - N/A   Clear
5:55 PM 84.2 °F 28.9 °F 13% 29.97 in 10.0 mi West 12.7 mph - N/A   Clear
6:15 PM 83.1 °F 27.3 °F 13% 29.97 in 10.0 mi WSW 11.5 mph - N/A   Clear
6:35 PM 81.3 °F 26.6 °F 13% 29.97 in 10.0 mi WSW 10.4 mph - N/A   Clear
6:55 PM 78.8 °F 24.8 °F 14% 29.97 in 10.0 mi WSW 11.5 mph - N/A   Clear
7:15 PM 75.7 °F 23.9 °F 15% 29.97 in 10.0 mi WSW 8.1 mph - N/A   Clear
7:35 PM 72.3 °F 25.2 °F 17% 29.98 in 10.0 mi WSW 8.1 mph - N/A   Clear
7:55 PM 71.4 °F 26.1 °F 18% 29.98 in 10.0 mi WSW 9.2 mph - N/A   Clear
8:15 PM 69.3 °F 26.6 °F 20% 29.98 in 10.0 mi West 8.1 mph - N/A   Clear
8:35 PM 71.1 °F 23.2 °F 17% 29.99 in 10.0 mi West 12.7 mph - N/A   Clear
8:55 PM 69.6 °F 22.1 °F 17% 29.99 in 10.0 mi West 11.5 mph - N/A   Clear
9:15 PM 68.2 °F 21.2 °F 17% 30.00 in 10.0 mi West 11.5 mph - N/A   Clear
9:35 PM 69.8 °F 20.7 °F 16% 30.00 in 10.0 mi West 13.8 mph - N/A   Clear
9:55 PM 68.9 °F 19.9 °F 16% 30.00 in 10.0 mi West 12.7 mph - N/A   Clear
10:15 PM 67.8 °F 19.8 °F 16% 30.00 in 10.0 mi West 12.7 mph - N/A   Clear
10:35 PM 68.5 °F 20.3 °F 16% 30.00 in 10.0 mi West 13.8 mph - N/A   Clear
10:55 PM 68.0 °F 21.2 °F 17% 30.00 in 10.0 mi West 12.7 mph - N/A   Clear
11:15 PM 66.2 °F 21.9 °F 19% 30.00 in 10.0 mi West 10.4 mph - N/A   Clear
11:35 PM 64.9 °F 22.5 °F 20% 30.00 in 10.0 mi West 10.4 mph - N/A   Clear
11:55 PM 63.1 °F 22.6 °F 21% 30.00 in 10.0 mi West 10.4 mph - N/A   Clear